����,���ϕ���(m/s),���ϕ���,�ő�u�ԕ���(m/s),�ő啗��������,�C��(��),���x(%),10���Ԉړ��ώZ�J��(mm),1���Ԉړ��ώZ�J��(mm),���J��(mm),�݌v�J��(mm),����(���ώZ)(MJ/m2),����(���ώZ)(min),���n�C��(hPa),�C�ʋC��(hPa)
2021-03-08T00:00:00+09:00,2.5,�k��,4.2,�k�k��,5.9,74.1,0,0,0,0,16.25,381,1012.1,1026.5
2021-03-08T00:01:00+09:00,2.5,�k��,4.2,�k�k��,6.1,74.6,0,0,0,0,0,0,1012.1,1026.5
2021-03-08T00:02:00+09:00,2.4,�k��,4.2,�k�k��,5.7,73.5,0,0,0,0,0,0,1012.1,1026.6
2021-03-08T00:03:00+09:00,2.4,�k��,4,���k��,5.9,74.5,0,0,0,0,0,0,1012.1,1026.5
2021-03-08T00:04:00+09:00,2.3,�k��,4,���k��,5.7,74.3,0,0,0,0,0,0,1012.1,1026.6
2021-03-08T00:05:00+09:00,2.2,�k�k��,3.9,�k��,5.7,73.9,0,0,0,0,0,0,1012.1,1026.6
2021-03-08T00:06:00+09:00,2.3,�k�k��,3.9,�k��,5.7,74.6,0,0,0,0,0,0,1012.1,1026.6
2021-03-08T00:07:00+09:00,2.3,�k�k��,3.5,�k�k��,5.6,74.9,0,0,0,0,0,0,1012.1,1026.6
2021-03-08T00:08:00+09:00,2.3,�k�k��,3.5,�k�k��,5.7,75.2,0,0,0,0,0,0,1012.1,1026.6
2021-03-08T00:09:00+09:00,2.3,�k�k��,3.5,�k�k��,5.8,75.5,0,0,0,0,0,0,1012.1,1026.6
2021-03-08T00:10:00+09:00,2.3,�k�k��,3.7,�k�k��,5.8,75.9,0,0,0,0,0,0,1012.1,1026.6
2021-03-08T00:11:00+09:00,2.4,�k�k��,4.2,�k�k��,5.7,75.1,0,0,0,0,0,0,1012.1,1026.6
2021-03-08T00:12:00+09:00,2.5,�k�k��,4.2,�k�k��,5.7,74.9,0,0,0,0,0,0,1012.1,1026.6
2021-03-08T00:13:00+09:00,2.5,�k�k��,4.6,�k,5.7,75.2,0,0,0,0,0,0,1012.1,1026.6
2021-03-08T00:14:00+09:00,2.6,�k�k��,4.6,�k,5.7,75.2,0,0,0,0,0,0,1012.1,1026.6
2021-03-08T00:15:00+09:00,2.6,�k�k��,4.6,�k,5.9,75.9,0,0,0,0,0,0,1012.1,1026.5
2021-03-08T00:16:00+09:00,2.6,�k�k��,4.6,�k,5.9,75.7,0,0,0,0,0,0,1012.1,1026.5
2021-03-08T00:17:00+09:00,2.7,�k�k��,4.6,�k,5.8,75.3,0,0,0,0,0,0,1012,1026.4
2021-03-08T00:18:00+09:00,2.8,�k�k��,4.6,�k,5.8,75.1,0,0,0,0,0,0,1012,1026.4
2021-03-08T00:19:00+09:00,2.8,�k�k��,4.6,�k,5.9,75.1,0,0,0,0,0,0,1012,1026.4
2021-03-08T00:20:00+09:00,2.9,�k�k��,4.6,�k,5.6,74.5,0,0,0,0,0,0,1012.1,1026.6
2021-03-08T00:21:00+09:00,2.9,�k�k��,4.6,�k,5.6,74.5,0,0,0,0,0,0,1012.1,1026.6
2021-03-08T00:22:00+09:00,2.9,�k�k��,4.6,�k,5.5,74.7,0,0,0,0,0,0,1012.1,1026.6
2021-03-08T00:23:00+09:00,2.9,�k�k��,4.6,�k�k��,5.6,75.1,0,0,0,0,0,0,1012,1026.5
2021-03-08T00:24:00+09:00,2.9,�k�k��,4.6,�k�k��,5.6,76,0,0,0,0,0,0,1012.1,1026.6
2021-03-08T00:25:00+09:00,2.9,�k�k��,4.6,�k�k��,5.4,75.5,0,0,0,0,0,0,1012.1,1026.6
2021-03-08T00:26:00+09:00,3,�k�k��,4.6,�k�k��,5.6,75.7,0,0,0,0,0,0,1012.1,1026.6
2021-03-08T00:27:00+09:00,3,�k�k��,4.6,�k�k��,5.5,76,0,0,0,0,0,0,1012.1,1026.6
2021-03-08T00:28:00+09:00,3,�k�k��,4.6,�k�k��,5.6,75.9,0,0,0,0,0,0,1012.1,1026.6
2021-03-08T00:29:00+09:00,3,�k�k��,4.6,�k�k��,5.6,76,0,0,0,0,0,0,1012.1,1026.6
2021-03-08T00:30:00+09:00,3,�k�k��,4.6,�k�k��,5.7,76.1,0,0,0,0,0,0,1012.1,1026.6
2021-03-08T00:31:00+09:00,3.1,�k�k��,4.6,�k�k��,5.6,75.6,0,0,0,0,0,0,1012.1,1026.6
2021-03-08T00:32:00+09:00,3.1,�k�k��,4.6,�k�k��,5.7,75.6,0,0,0,0,0,0,1012.1,1026.6
2021-03-08T00:33:00+09:00,3.1,�k�k��,4.6,�k�k��,5.7,75.9,0,0,0,0,0,0,1012.1,1026.6
2021-03-08T00:34:00+09:00,3.1,�k�k��,4.6,�k�k��,5.7,75.6,0,0,0,0,0,0,1012.1,1026.6
2021-03-08T00:35:00+09:00,3.1,�k�k��,4.6,�k�k��,5.8,75.6,0,0,0,0,0,0,1012.1,1026.6
2021-03-08T00:36:00+09:00,3.1,�k�k��,4.6,�k�k��,5.7,75.3,0,0,0,0,0,0,1012.1,1026.6
2021-03-08T00:37:00+09:00,3.1,�k�k��,4.6,�k�k��,5.7,75.5,0,0,0,0,0,0,1012.1,1026.6
2021-03-08T00:38:00+09:00,3,�k�k��,4.6,�k�k��,5.4,74.6,0,0,0,0,0,0,1012.1,1026.6
2021-03-08T00:39:00+09:00,3,�k�k��,4.6,�k�k��,5.4,75.3,0,0,0,0,0,0,1012.1,1026.6
2021-03-08T00:40:00+09:00,2.9,�k�k��,4.6,�k�k��,5.4,75.6,0,0,0,0,0,0,1012,1026.5
2021-03-08T00:41:00+09:00,2.9,�k�k��,4.4,�k�k��,5.5,76.4,0,0,0,0,0,0,1012,1026.5
2021-03-08T00:42:00+09:00,2.9,�k�k��,4.4,�k�k��,5.5,76.5,0,0,0,0,0,0,1012,1026.5
2021-03-08T00:43:00+09:00,2.8,�k�k��,4.3,�k�k��,5.6,76.8,0,0,0,0,0,0,1012.1,1026.6
2021-03-08T00:44:00+09:00,2.7,�k�k��,4.3,�k�k��,5.4,76.2,0,0,0,0,0,0,1012,1026.5
2021-03-08T00:45:00+09:00,2.6,�k�k��,4.3,�k�k��,5.6,76.4,0,0,0,0,0,0,1012,1026.5
2021-03-08T00:46:00+09:00,2.6,�k�k��,4.3,�k�k��,5.8,77,0,0,0,0,0,0,1012,1026.4
2021-03-08T00:47:00+09:00,2.5,�k�k��,4.3,�k�k��,5.7,76.7,0,0,0,0,0,0,1012,1026.5
2021-03-08T00:48:00+09:00,2.5,�k�k��,4.3,�k�k��,5.3,75.3,0,0,0,0,0,0,1012,1026.5
2021-03-08T00:49:00+09:00,2.4,�k�k��,4.3,�k�k��,5.2,75.7,0,0,0,0,0,0,1012.1,1026.6
2021-03-08T00:50:00+09:00,2.5,�k�k��,4.3,�k�k��,5.3,76.7,0,0,0,0,0,0,1012,1026.5
2021-03-08T00:51:00+09:00,,,,,,,,,,,,,,
2021-03-08T00:52:00+09:00,2.5,�k�k��,4.2,�k��,5.4,77.3,0,0,0,0,0,0,1012,1026.5
2021-03-08T00:53:00+09:00,2.5,�k�k��,4.2,�k��,5.6,77.5,0,0,0,0,0,0,1012.1,1026.6
2021-03-08T00:54:00+09:00,2.6,�k�k��,4.2,�k��,5.6,77,0,0,0,0,0,0,1012.1,1026.6
2021-03-08T00:55:00+09:00,2.6,�k�k��,4.2,�k��,5.4,76.3,0,0,0,0,0,0,1012.1,1026.6
2021-03-08T00:56:00+09:00,2.6,�k�k��,4.2,�k��,5.4,76.4,0,0,0,0,0,0,1012.1,1026.6
2021-03-08T00:57:00+09:00,2.7,�k�k��,4.2,�k��,5.3,76.5,0,0,0,0,0,0,1012.1,1026.6
2021-03-08T00:58:00+09:00,2.7,�k�k��,4.2,�k��,5.3,76.3,0,0,0,0,0,0,1012.1,1026.6
2021-03-08T00:59:00+09:00,2.7,�k�k��,4.2,�k��,5.4,77.3,0,0,0,0,0,0,1012,1026.5
2021-03-08T01:00:00+09:00,2.7,�k�k��,4.2,�k��,5.3,76.8,0,0,0,0,0,0,1012,1026.5
2021-03-08T01:01:00+09:00,2.7,�k�k��,4.2,�k��,5.3,76.7,0,0,0,0,0,0,1012.1,1026.6
2021-03-08T01:02:00+09:00,2.7,�k�k��,4.2,�k�k��,5.2,76.5,0,0,0,0,0,0,1012,1026.5
2021-03-08T01:03:00+09:00,2.7,�k�k��,4.3,�k�k��,5.2,76.7,0,0,0,0,0,0,1012.1,1026.6
2021-03-08T01:04:00+09:00,2.7,�k�k��,4.3,�k�k��,5.5,77.6,0,0,0,0,0,0,1012.1,1026.6
2021-03-08T01:05:00+09:00,2.8,�k�k��,4.3,�k�k��,5.5,77.3,0,0,0,0,0,0,1012.1,1026.6
2021-03-08T01:06:00+09:00,2.7,�k�k��,4.3,�k�k��,5.3,76.2,0,0,0,0,0,0,1012.1,1026.6
2021-03-08T01:07:00+09:00,2.7,�k�k��,4.3,�k�k��,5.5,76.5,0,0,0,0,0,0,1012.1,1026.6
2021-03-08T01:08:00+09:00,2.8,�k�k��,4.3,�k�k��,5.6,76.8,0,0,0,0,0,0,1012.1,1026.6
2021-03-08T01:09:00+09:00,2.7,�k�k��,4.3,�k�k��,5.3,75.5,0,0,0,0,0,0,1012.1,1026.6
2021-03-08T01:10:00+09:00,2.7,�k�k��,4.3,�k�k��,5.3,75.7,0,0,0,0,0,0,1012,1026.5
2021-03-08T01:11:00+09:00,2.8,�k�k��,4.3,�k�k��,5.5,76.5,0,0,0,0,0,0,1012,1026.5
2021-03-08T01:12:00+09:00,2.8,�k�k��,4.3,�k�k��,5.4,76.6,0,0,0,0,0,0,1012,1026.5
2021-03-08T01:13:00+09:00,2.7,�k�k��,4.3,�k�k��,5.4,75.8,0,0,0,0,0,0,1012,1026.5
2021-03-08T01:14:00+09:00,2.7,�k�k��,4.1,�k�k��,5.3,75.8,0,0,0,0,0,0,1012.1,1026.6
2021-03-08T01:15:00+09:00,2.6,�k�k��,4.1,�k�k��,5.4,76.2,0,0,0,0,0,0,1012.1,1026.6
2021-03-08T01:16:00+09:00,2.6,�k�k��,4.1,�k�k��,5.3,76,0,0,0,0,0,0,1012.1,1026.6
2021-03-08T01:17:00+09:00,2.5,�k�k��,4,�k�k��,5.3,76,0,0,0,0,0,0,1012.1,1026.6
2021-03-08T01:18:00+09:00,2.5,�k�k��,3.9,�k�k��,5.6,76.9,0,0,0,0,0,0,1012.1,1026.6
2021-03-08T01:19:00+09:00,2.4,�k�k��,3.9,�k�k��,5.6,76.4,0,0,0,0,0,0,1012.1,1026.6
2021-03-08T01:20:00+09:00,2.4,�k�k��,3.9,�k�k��,5.3,75.7,0,0,0,0,0,0,1012.1,1026.6
2021-03-08T01:21:00+09:00,2.3,�k�k��,3.9,�k�k��,5.4,75.4,0,0,0,0,0,0,1012.1,1026.6
2021-03-08T01:22:00+09:00,2.3,�k�k��,3.9,�k�k��,5.5,76.2,0,0,0,0,0,0,1012.1,1026.6
2021-03-08T01:23:00+09:00,2.3,�k�k��,3.9,�k�k��,5.6,75.9,0,0,0,0,0,0,1012.1,1026.6
2021-03-08T01:24:00+09:00,2.3,�k�k��,3.5,�k�k��,5.5,75.7,0,0,0,0,0,0,1012.1,1026.6
2021-03-08T01:25:00+09:00,2.3,�k�k��,3.5,�k�k��,5.8,75.8,0,0,0,0,0,0,1012.1,1026.6
2021-03-08T01:26:00+09:00,2.2,�k�k��,3.5,�k�k��,5.8,75.7,0,0,0,0,0,0,1012.1,1026.6
2021-03-08T01:27:00+09:00,2.2,�k�k��,3.5,�k�k��,5.8,74.9,0,0,0,0,0,0,1012.1,1026.6
2021-03-08T01:28:00+09:00,2.2,�k�k��,3.5,�k�k��,5.7,74.3,0,0,0,0,0,0,1012.1,1026.6
2021-03-08T01:29:00+09:00,2.2,�k�k��,3.5,�k�k��,5.7,74.4,0,0,0,0,0,0,1012.1,1026.6
2021-03-08T01:30:00+09:00,2.2,�k�k��,3.5,�k�k��,5.6,74.2,0,0,0,0,0,0,1012.1,1026.6
2021-03-08T01:31:00+09:00,2.2,�k�k��,3.5,�k�k��,5.4,73.8,0,0,0,0,0,0,1012.1,1026.6
2021-03-08T01:32:00+09:00,2.2,�k��,3.5,�k�k��,5.4,74.6,0,0,0,0,0,0,1012.1,1026.6
2021-03-08T01:33:00+09:00,2.2,�k��,3.5,�k��,5.6,74.9,0,0,0,0,0,0,1012.1,1026.6
2021-03-08T01:34:00+09:00,2.2,�k��,3.7,�k��,5.8,75.6,0,0,0,0,0,0,1012.1,1026.6
2021-03-08T01:35:00+09:00,2.2,�k��,3.7,�k��,5.6,74.7,0,0,0,0,0,0,1012.1,1026.6
2021-03-08T01:36:00+09:00,2.3,�k��,3.7,�k��,5.6,74.2,0,0,0,0,0,0,1012.1,1026.6
2021-03-08T01:37:00+09:00,2.4,�k��,3.8,�k��,5.4,74,0,0,0,0,0,0,1012.1,1026.6
2021-03-08T01:38:00+09:00,2.4,�k��,3.8,�k��,5.5,74.2,0,0,0,0,0,0,1012.2,1026.7
2021-03-08T01:39:00+09:00,2.5,�k��,3.8,�k��,5.4,74.4,0,0,0,0,0,0,1012.1,1026.6
2021-03-08T01:40:00+09:00,2.5,�k��,3.8,�k��,5.5,74.8,0,0,0,0,0,0,1012.1,1026.6
2021-03-08T01:41:00+09:00,2.5,�k��,3.8,�k��,5.5,75.1,0,0,0,0,0,0,1012.1,1026.6
2021-03-08T01:42:00+09:00,2.6,�k��,4.9,�k��,5.2,74.7,0,0,0,0,0,0,1012.1,1026.6
2021-03-08T01:43:00+09:00,2.7,�k��,4.9,�k��,5.1,75,0,0,0,0,0,0,1012.1,1026.6
2021-03-08T01:44:00+09:00,2.7,�k��,4.9,�k��,5.2,75.8,0,0,0,0,0,0,1012.1,1026.6
2021-03-08T01:45:00+09:00,2.7,�k��,4.9,�k��,5.3,76.4,0,0,0,0,0,0,1012.1,1026.6
2021-03-08T01:46:00+09:00,2.7,�k��,4.9,�k��,5.4,76.6,0,0,0,0,0,0,1012.1,1026.6
2021-03-08T01:47:00+09:00,2.7,�k��,4.9,�k��,5.4,76.5,0,0,0,0,0,0,1012.1,1026.6
2021-03-08T01:48:00+09:00,2.8,�k��,4.9,�k��,5.3,76.4,0,0,0,0,0,0,1012.1,1026.6
2021-03-08T01:49:00+09:00,2.8,�k��,4.9,�k��,5.2,76.2,0,0,0,0,0,0,1012.1,1026.6
2021-03-08T01:50:00+09:00,2.9,�k��,4.9,�k��,5.3,76.5,0,0,0,0,0,0,1012.1,1026.6
2021-03-08T01:51:00+09:00,2.9,�k��,4.9,�k��,5.5,77.2,0,0,0,0,0,0,1012.1,1026.6
2021-03-08T01:52:00+09:00,2.9,�k��,4.7,�k��,5.5,77.2,0,0,0,0,0,0,1012.1,1026.6
2021-03-08T01:53:00+09:00,2.9,�k��,4.7,�k��,5.5,76.9,0,0,0,0,0,0,1012.1,1026.6
2021-03-08T01:54:00+09:00,2.9,�k��,4.7,�k��,5.5,76.9,0,0,0,0,0,0,1012.1,1026.6
2021-03-08T01:55:00+09:00,2.9,�k��,4.7,�k��,5.2,76.2,0,0,0,0,0,0,1012.2,1026.7
2021-03-08T01:56:00+09:00,2.9,�k��,4.7,�k��,5.2,76.6,0,0,0,0,0,0,1012.1,1026.6
2021-03-08T01:57:00+09:00,3,�k�k��,5.4,�k,5.3,77.2,0,0,0,0,0,0,1012.1,1026.6
2021-03-08T01:58:00+09:00,2.9,�k�k��,5.4,�k,5.5,77.6,0,0,0,0,0,0,1012.1,1026.6
2021-03-08T01:59:00+09:00,2.9,�k�k��,5.4,�k,5.5,77.8,0,0,0,0,0,0,1012.1,1026.6
2021-03-08T02:00:00+09:00,2.9,�k�k��,5.4,�k,5.3,76.9,0,0,0,0,0,0,1012.1,1026.6
2021-03-08T02:01:00+09:00,2.9,�k�k��,5.4,�k,5.3,77,0,0,0,0,0,0,1012.1,1026.6
2021-03-08T02:02:00+09:00,2.9,�k�k��,5.4,�k,5.5,77.5,0,0,0,0,0,0,1012,1026.5
2021-03-08T02:03:00+09:00,2.8,�k�k��,5.4,�k,5.7,77.7,0,0,0,0,0,0,1012,1026.5
2021-03-08T02:04:00+09:00,2.8,�k�k��,5.4,�k,5.6,77.3,0,0,0,0,0,0,1012,1026.5
2021-03-08T02:05:00+09:00,2.7,�k�k��,5.4,�k,5.5,76.5,0,0,0,0,0,0,1012,1026.5
2021-03-08T02:06:00+09:00,2.6,�k�k��,5.4,�k,5.7,77,0,0,0,0,0,0,1012,1026.5
2021-03-08T02:07:00+09:00,2.5,�k�k��,4.3,�k�k��,5.5,76.4,0,0,0,0,0,0,1012,1026.5
2021-03-08T02:08:00+09:00,2.4,�k�k��,4.3,�k�k��,5.4,76.2,0,0,0,0,0,0,1012,1026.5
2021-03-08T02:09:00+09:00,2.3,�k�k��,4.1,�k,5.3,76.1,0,0,0,0,0,0,1012,1026.5
2021-03-08T02:10:00+09:00,2.2,�k,4.1,�k,5.2,76.4,0,0,0,0,0,0,1012,1026.5
2021-03-08T02:11:00+09:00,2,�k,4.1,�k,5.3,76.9,0,0,0,0,0,0,1012,1026.5
2021-03-08T02:12:00+09:00,2.1,�k�k��,4.4,�k�k��,5.5,77.6,0,0,0,0,0,0,1012,1026.5
2021-03-08T02:13:00+09:00,2.1,�k�k��,4.4,�k�k��,5.4,77.4,0,0,0,0,0,0,1012,1026.5
2021-03-08T02:14:00+09:00,2.1,�k�k��,4.4,�k�k��,5.3,77,0,0,0,0,0,0,1012,1026.5
2021-03-08T02:15:00+09:00,2.1,�k�k��,4.4,�k�k��,5.3,77.1,0,0,0,0,0,0,1012,1026.5
2021-03-08T02:16:00+09:00,2.2,�k�k��,4.4,�k�k��,5.5,77.9,0,0,0,0,0,0,1012,1026.5
2021-03-08T02:17:00+09:00,2.2,�k�k��,4.4,�k�k��,5.5,78,0,0,0,0,0,0,1012,1026.5
2021-03-08T02:18:00+09:00,2.3,�k�k��,4.4,�k�k��,5.4,77.3,0,0,0,0,0,0,1012,1026.5
2021-03-08T02:19:00+09:00,2.4,�k�k��,4.4,�k�k��,5.3,77,0,0,0,0,0,0,1012,1026.5
2021-03-08T02:20:00+09:00,2.5,�k�k��,4.5,�k�k��,5.5,77.3,0,0,0,0,0,0,1011.9,1026.4
2021-03-08T02:21:00+09:00,2.7,�k�k��,4.5,�k�k��,5.6,77.9,0,0,0,0,0,0,1011.9,1026.4
2021-03-08T02:22:00+09:00,2.7,�k�k��,4.5,�k�k��,5.5,77.2,0,0,0,0,0,0,1011.9,1026.4
2021-03-08T02:23:00+09:00,2.7,�k�k��,4.5,�k�k��,5.5,76.8,0,0,0,0,0,0,1011.9,1026.4
2021-03-08T02:24:00+09:00,2.6,�k�k��,4.5,�k�k��,5.3,76.4,0,0,0,0,0,0,1011.9,1026.4
2021-03-08T02:25:00+09:00,2.7,�k�k��,4.5,�k�k��,5.2,76.2,0,0,0,0,0,0,1011.9,1026.4
2021-03-08T02:26:00+09:00,2.6,�k�k��,4.5,�k�k��,5.1,76.5,0,0,0,0,0,0,1011.9,1026.4
2021-03-08T02:27:00+09:00,2.5,�k�k��,4.5,�k�k��,5.4,77.7,0,0,0,0,0,0,1011.9,1026.4
2021-03-08T02:28:00+09:00,2.4,�k�k��,4.5,�k�k��,5.3,77.8,0,0,0,0,0,0,1011.9,1026.4
2021-03-08T02:29:00+09:00,2.3,�k�k��,4.5,�k�k��,5.4,77.6,0,0,0,0,0,0,1011.9,1026.4
2021-03-08T02:30:00+09:00,2.2,�k�k��,4.5,�k�k��,5.3,77.7,0,0,0,0,0,0,1011.9,1026.4
2021-03-08T02:31:00+09:00,2.1,�k�k��,4.5,�k�k��,5.3,77.2,0,0,0,0,0,0,1011.9,1026.4
2021-03-08T02:32:00+09:00,2,�k�k��,4.5,�k�k��,5.3,77.3,0,0,0,0,0,0,1011.9,1026.4
2021-03-08T02:33:00+09:00,1.9,�k�k��,3.8,�k�k��,5.4,77.3,0,0,0,0,0,0,1011.9,1026.4
2021-03-08T02:34:00+09:00,2,�k�k��,3.8,�k�k��,5.5,77.4,0,0,0,0,0,0,1011.8,1026.3
2021-03-08T02:35:00+09:00,2,�k�k��,3.9,�k�k��,5.4,77.3,0,0,0,0,0,0,1011.8,1026.3
2021-03-08T02:36:00+09:00,2.1,�k�k��,4.2,�k�k��,5.5,77.1,0,0,0,0,0,0,1011.8,1026.3
2021-03-08T02:37:00+09:00,2.2,�k�k��,4.2,�k�k��,5.3,76.5,0,0,0,0,0,0,1011.8,1026.3
2021-03-08T02:38:00+09:00,2.2,�k�k��,4.2,�k�k��,5.3,76.5,0,0,0,0,0,0,1011.8,1026.3
2021-03-08T02:39:00+09:00,2.3,�k�k��,4.2,�k�k��,5.4,77.2,0,0,0,0,0,0,1011.8,1026.3
2021-03-08T02:40:00+09:00,2.4,�k�k��,4.5,�k�k��,5.5,77.8,0,0,0,0,0,0,1011.8,1026.3
2021-03-08T02:41:00+09:00,2.5,�k�k��,4.5,�k�k��,5.5,77.2,0,0,0,0,0,0,1011.8,1026.3
2021-03-08T02:42:00+09:00,2.6,�k�k��,4.5,�k�k��,5.3,76.3,0,0,0,0,0,0,1011.8,1026.3
2021-03-08T02:43:00+09:00,2.6,�k�k��,4.5,�k�k��,5.4,76.6,0,0,0,0,0,0,1011.8,1026.3
2021-03-08T02:44:00+09:00,2.7,�k�k��,4.6,�k,5.6,77,0,0,0,0,0,0,1011.8,1026.3
2021-03-08T02:45:00+09:00,2.6,�k�k��,4.6,�k,5.5,76.7,0,0,0,0,0,0,1011.8,1026.3
2021-03-08T02:46:00+09:00,2.7,�k�k��,5.1,�k�k��,5.6,76.2,0,0,0,0,0,0,1011.8,1026.3
2021-03-08T02:47:00+09:00,2.7,�k�k��,5.1,�k�k��,5.5,76.2,0,0,0,0,0,0,1011.8,1026.3
2021-03-08T02:48:00+09:00,2.8,�k�k��,5.1,�k�k��,5.3,75.6,0,0,0,0,0,0,1011.8,1026.3
2021-03-08T02:49:00+09:00,2.7,�k�k��,5.1,�k�k��,5.4,75.8,0,0,0,0,0,0,1011.7,1026.2
2021-03-08T02:50:00+09:00,2.7,�k�k��,5.1,�k�k��,5.3,76.2,0,0,0,0,0,0,1011.7,1026.2
2021-03-08T02:51:00+09:00,2.6,�k�k��,5.1,�k�k��,5.4,76.3,0,0,0,0,0,0,1011.7,1026.2
2021-03-08T02:52:00+09:00,2.7,�k�k��,5.1,�k�k��,5.7,77,0,0,0,0,0,0,1011.7,1026.1
2021-03-08T02:53:00+09:00,2.8,�k�k��,5.1,�k�k��,5.6,76.4,0,0,0,0,0,0,1011.7,1026.2
2021-03-08T02:54:00+09:00,2.8,�k�k��,5.1,�k�k��,5.6,76.2,0,0,0,0,0,0,1011.6,1026.1
2021-03-08T02:55:00+09:00,2.8,�k�k��,5.1,�k�k��,5.3,75.1,0,0,0,0,0,0,1011.6,1026.1
2021-03-08T02:56:00+09:00,2.8,�k�k��,4.8,�k�k��,5.4,75.4,0,0,0,0,0,0,1011.6,1026.1
2021-03-08T02:57:00+09:00,2.8,�k�k��,4.8,�k�k��,5.5,76.5,0,0,0,0,0,0,1011.6,1026.1
2021-03-08T02:58:00+09:00,2.9,�k�k��,4.8,�k�k��,5.5,76.4,0,0,0,0,0,0,1011.6,1026.1
2021-03-08T02:59:00+09:00,2.9,�k�k��,4.8,�k�k��,5.5,76.3,0,0,0,0,0,0,1011.6,1026.1
2021-03-08T03:00:00+09:00,3,�k�k��,4.8,�k�k��,5.5,75.8,0,0,0,0,0,0,1011.6,1026.1
2021-03-08T03:01:00+09:00,3.1,�k�k��,4.8,�k�k��,5.8,76.6,0,0,0,0,0,0,1011.5,1025.9
2021-03-08T03:02:00+09:00,3.1,�k�k��,4.8,�k��,5.7,76.1,0,0,0,0,0,0,1011.6,1026
2021-03-08T03:03:00+09:00,3.1,�k�k��,4.8,�k��,5.6,75.2,0,0,0,0,0,0,1011.6,1026.1
2021-03-08T03:04:00+09:00,3,�k�k��,4.8,�k��,5.6,75.2,0,0,0,0,0,0,1011.6,1026.1
2021-03-08T03:05:00+09:00,3,�k�k��,4.8,�k��,5.6,75.9,0,0,0,0,0,0,1011.5,1026
2021-03-08T03:06:00+09:00,3,�k�k��,4.8,�k��,5.8,75.7,0,0,0,0,0,0,1011.5,1025.9
2021-03-08T03:07:00+09:00,3.1,�k�k��,4.8,�k��,5.7,75.6,0,0,0,0,0,0,1011.5,1025.9
2021-03-08T03:08:00+09:00,3.2,�k�k��,4.9,�k�k��,5.6,75.3,0,0,0,0,0,0,1011.5,1026
2021-03-08T03:09:00+09:00,3.2,�k�k��,5,�k��,5.6,75,0,0,0,0,0,0,1011.5,1026
2021-03-08T03:10:00+09:00,3.2,�k�k��,5,�k��,5.6,75.7,0,0,0,0,0,0,1011.5,1026
2021-03-08T03:11:00+09:00,3.1,�k�k��,5,�k��,5.7,75.5,0,0,0,0,0,0,1011.5,1025.9
2021-03-08T03:12:00+09:00,3.1,�k�k��,5,�k��,5.7,75.9,0,0,0,0,0,0,1011.5,1025.9
2021-03-08T03:13:00+09:00,3.1,�k�k��,5,�k��,5.5,75.1,0,0,0,0,0,0,1011.5,1026
2021-03-08T03:14:00+09:00,3.1,�k�k��,5,�k��,5.7,75.6,0,0,0,0,0,0,1011.5,1025.9
2021-03-08T03:15:00+09:00,3.1,�k�k��,5,�k��,5.7,75.7,0,0,0,0,0,0,1011.5,1025.9
2021-03-08T03:16:00+09:00,3.1,�k�k��,5,�k��,5.6,75.5,0,0,0,0,0,0,1011.5,1026
2021-03-08T03:17:00+09:00,3.1,�k�k��,5,�k��,5.7,75.8,0,0,0,0,0,0,1011.5,1025.9
2021-03-08T03:18:00+09:00,3,�k�k��,5,�k��,5.7,75.6,0,0,0,0,0,0,1011.5,1025.9
2021-03-08T03:19:00+09:00,3,�k�k��,5,�k�k��,5.7,75.4,0,0,0,0,0,0,1011.5,1025.9
2021-03-08T03:20:00+09:00,3,�k�k��,5,�k�k��,5.6,75,0,0,0,0,0,0,1011.5,1026
2021-03-08T03:21:00+09:00,3,�k�k��,5,�k�k��,5.8,75.7,0,0,0,0,0,0,1011.5,1025.9
2021-03-08T03:22:00+09:00,2.9,�k�k��,4.7,�k�k��,5.7,75.6,0,0,0,0,0,0,1011.5,1025.9
2021-03-08T03:23:00+09:00,2.8,�k�k��,4.7,�k�k��,5.5,74.7,0,0,0,0,0,0,1011.5,1026
2021-03-08T03:24:00+09:00,2.8,�k�k��,4.7,�k�k��,5.6,75.7,0,0,0,0,0,0,1011.4,1025.9
2021-03-08T03:25:00+09:00,2.8,�k�k��,4.7,�k�k��,5.6,76.1,0,0,0,0,0,0,1011.5,1026
2021-03-08T03:26:00+09:00,2.7,�k�k��,4.7,�k�k��,5.6,76.1,0,0,0,0,0,0,1011.5,1026
2021-03-08T03:27:00+09:00,2.6,�k�k��,4.7,�k�k��,5.7,76,0,0,0,0,0,0,1011.4,1025.8
2021-03-08T03:28:00+09:00,2.6,�k�k��,4.7,�k�k��,5.6,75.7,0,0,0,0,0,0,1011.4,1025.9
2021-03-08T03:29:00+09:00,2.6,�k�k��,4.7,�k�k��,5.6,76.1,0,0,0,0,0,0,1011.4,1025.9
2021-03-08T03:30:00+09:00,2.6,�k�k��,4.7,�k�k��,5.6,76,0,0,0,0,0,0,1011.4,1025.9
2021-03-08T03:31:00+09:00,2.5,�k�k��,4.7,�k�k��,5.7,76.3,0,0,0,0,0,0,1011.4,1025.8
2021-03-08T03:32:00+09:00,2.6,�k�k��,4.7,�k�k��,5.7,76.4,0,0,0,0,0,0,1011.4,1025.8
2021-03-08T03:33:00+09:00,2.7,�k�k��,4.9,�k�k��,5.7,75.9,0,0,0,0,0,0,1011.4,1025.8
2021-03-08T03:34:00+09:00,2.7,�k�k��,4.9,�k�k��,5.9,76.2,0,0,0,0,0,0,1011.4,1025.8
2021-03-08T03:35:00+09:00,2.7,�k�k��,4.9,�k�k��,5.7,75.5,0,0,0,0,0,0,1011.4,1025.8
2021-03-08T03:36:00+09:00,2.8,�k�k��,4.9,�k�k��,5.6,75.1,0,0,0,0,0,0,1011.4,1025.9
2021-03-08T03:37:00+09:00,2.8,�k�k��,4.9,�k�k��,5.8,75.8,0,0,0,0,0,0,1011.4,1025.8
2021-03-08T03:38:00+09:00,2.8,�k�k��,4.9,�k�k��,5.7,75.7,0,0,0,0,0,0,1011.4,1025.8
2021-03-08T03:39:00+09:00,2.8,�k�k��,4.9,�k�k��,5.7,75.5,0,0,0,0,0,0,1011.4,1025.8
2021-03-08T03:40:00+09:00,2.7,�k�k��,4.9,�k�k��,5.6,75.6,0,0,0,0,0,0,1011.4,1025.9
2021-03-08T03:41:00+09:00,2.7,�k�k��,4.9,�k�k��,5.6,75.4,0,0,0,0,0,0,1011.4,1025.9
2021-03-08T03:42:00+09:00,2.7,�k�k��,4.9,�k�k��,5.6,75.8,0,0,0,0,0,0,1011.4,1025.9
2021-03-08T03:43:00+09:00,2.6,�k�k��,4.2,�k��,5.7,75.6,0,0,0,0,0,0,1011.4,1025.8
2021-03-08T03:44:00+09:00,2.5,�k�k��,4.2,�k��,5.8,76,0,0,0,0,0,0,1011.4,1025.8
2021-03-08T03:45:00+09:00,2.5,�k�k��,4.2,�k��,5.7,76,0,0,0,0,0,0,1011.4,1025.8
2021-03-08T03:46:00+09:00,2.5,�k�k��,4.2,�k��,5.9,76.2,0,0,0,0,0,0,1011.3,1025.7
2021-03-08T03:47:00+09:00,2.5,�k�k��,4.2,�k��,5.8,76,0,0,0,0,0,0,1011.3,1025.7
2021-03-08T03:48:00+09:00,2.5,�k�k��,4.2,�k��,5.7,75,0,0,0,0,0,0,1011.3,1025.7
2021-03-08T03:49:00+09:00,2.5,�k�k��,4.2,�k��,5.7,75.4,0,0,0,0,0,0,1011.3,1025.7
2021-03-08T03:50:00+09:00,2.5,�k�k��,4.4,�k�k��,5.8,75.4,0,0,0,0,0,0,1011.3,1025.7
2021-03-08T03:51:00+09:00,2.6,�k�k��,4.4,�k�k��,5.8,75.5,0,0,0,0,0,0,1011.3,1025.7
2021-03-08T03:52:00+09:00,2.6,�k�k��,4.4,�k�k��,5.8,75.3,0,0,0,0,0,0,1011.3,1025.7
2021-03-08T03:53:00+09:00,2.6,�k�k��,4.4,�k�k��,5.8,75.2,0,0,0,0,0,0,1011.3,1025.7
2021-03-08T03:54:00+09:00,2.6,�k�k��,4.4,�k�k��,5.6,74.6,0,0,0,0,0,0,1011.3,1025.7
2021-03-08T03:55:00+09:00,2.6,�k�k��,4.4,�k�k��,5.8,75.3,0,0,0,0,0,0,1011.3,1025.7
2021-03-08T03:56:00+09:00,2.6,�k�k��,4.4,�k�k��,6,75.8,0,0,0,0,0,0,1011.3,1025.7
2021-03-08T03:57:00+09:00,2.7,�k�k��,4.4,�k�k��,5.9,75.3,0,0,0,0,0,0,1011.3,1025.7
2021-03-08T03:58:00+09:00,2.7,�k�k��,4.4,�k�k��,5.9,74.9,0,0,0,0,0,0,1011.3,1025.7
2021-03-08T03:59:00+09:00,2.7,�k�k��,4.4,�k�k��,5.9,75.2,0,0,0,0,0,0,1011.3,1025.7
2021-03-08T04:00:00+09:00,2.6,�k�k��,4.4,�k�k��,5.9,75,0,0,0,0,0,0,1011.3,1025.7
2021-03-08T04:01:00+09:00,2.6,�k�k��,4.3,�k�k��,5.7,74.5,0,0,0,0,0,0,1011.3,1025.7
2021-03-08T04:02:00+09:00,2.6,�k�k��,4.3,�k�k��,5.7,74.6,0,0,0,0,0,0,1011.3,1025.7
2021-03-08T04:03:00+09:00,2.6,�k�k��,4.3,�k�k��,5.7,75,0,0,0,0,0,0,1011.3,1025.7
2021-03-08T04:04:00+09:00,2.6,�k�k��,4.3,�k�k��,6,75.8,0,0,0,0,0,0,1011.3,1025.7
2021-03-08T04:05:00+09:00,2.6,�k�k��,4.3,�k�k��,5.8,75.2,0,0,0,0,0,0,1011.3,1025.7
2021-03-08T04:06:00+09:00,2.6,�k�k��,4.3,�k�k��,5.9,74.8,0,0,0,0,0,0,1011.3,1025.7
2021-03-08T04:07:00+09:00,2.6,�k�k��,3.9,�k�k��,5.9,75.1,0,0,0,0,0,0,1011.3,1025.7
2021-03-08T04:08:00+09:00,2.6,�k��,3.9,�k�k��,5.9,75.4,0,0,0,0,0,0,1011.3,1025.7
2021-03-08T04:09:00+09:00,2.6,�k��,3.9,�k�k��,5.9,75.1,0,0,0,0,0,0,1011.3,1025.7
2021-03-08T04:10:00+09:00,2.6,�k��,3.9,�k�k��,5.8,74.9,0,0,0,0,0,0,1011.3,1025.7
2021-03-08T04:11:00+09:00,2.6,�k��,3.9,�k�k��,5.8,75,0,0,0,0,0,0,1011.3,1025.7
2021-03-08T04:12:00+09:00,2.6,�k��,3.9,�k�k��,5.9,75.5,0,0,0,0,0,0,1011.3,1025.7
2021-03-08T04:13:00+09:00,2.6,�k��,4.1,�k��,5.8,75.8,0,0,0,0,0,0,1011.3,1025.7
2021-03-08T04:14:00+09:00,2.7,�k��,5.3,�k�k��,5.8,75.4,0,0,0,0,0,0,1011.3,1025.7
2021-03-08T04:15:00+09:00,2.8,�k��,5.3,�k�k��,5.8,75,0,0,0,0,0,0,1011.3,1025.7
2021-03-08T04:16:00+09:00,3,�k��,5.3,�k�k��,5.9,75.6,0,0,0,0,0,0,1011.3,1025.7
2021-03-08T04:17:00+09:00,3,�k�k��,5.3,�k�k��,5.9,75.3,0,0,0,0,0,0,1011.3,1025.7
2021-03-08T04:18:00+09:00,3.1,�k�k��,5.3,�k�k��,5.8,74.7,0,0,0,0,0,0,1011.4,1025.8
2021-03-08T04:19:00+09:00,3.1,�k�k��,5.3,�k�k��,5.8,74.7,0,0,0,0,0,0,1011.4,1025.8
2021-03-08T04:20:00+09:00,3.2,�k�k��,5.3,�k�k��,5.8,74.9,0,0,0,0,0,0,1011.4,1025.8
2021-03-08T04:21:00+09:00,3.1,�k�k��,5.3,�k�k��,5.8,74.8,0,0,0,0,0,0,1011.4,1025.8
2021-03-08T04:22:00+09:00,3.2,�k�k��,5.3,�k�k��,5.8,75.2,0,0,0,0,0,0,1011.4,1025.8
2021-03-08T04:23:00+09:00,3.2,�k�k��,5.3,�k�k��,5.8,74.9,0,0,0,0,0,0,1011.4,1025.8
2021-03-08T04:24:00+09:00,3.1,�k�k��,5.3,�k�k��,5.7,75.1,0,0,0,0,0,0,1011.4,1025.8
2021-03-08T04:25:00+09:00,3.1,�k�k��,5.3,�k�k��,5.8,75.4,0,0,0,0,0,0,1011.4,1025.8
2021-03-08T04:26:00+09:00,3,�k�k��,4.6,�k�k��,5.8,75.5,0,0,0,0,0,0,1011.4,1025.8
2021-03-08T04:27:00+09:00,3,�k�k��,4.6,�k�k��,5.9,75.8,0,0,0,0,0,0,1011.4,1025.8
2021-03-08T04:28:00+09:00,2.9,�k�k��,4.6,�k�k��,6.1,75.5,0,0,0,0,0,0,1011.5,1025.9
2021-03-08T04:29:00+09:00,2.9,�k�k��,4.6,�k�k��,5.9,74.9,0,0,0,0,0,0,1011.5,1025.9
2021-03-08T04:30:00+09:00,2.9,�k�k��,4.6,�k�k��,5.8,74.1,0,0,0,0,0,0,1011.5,1025.9
2021-03-08T04:31:00+09:00,2.9,�k�k��,4.6,�k�k��,5.9,74.7,0,0,0,0,0,0,1011.5,1025.9
2021-03-08T04:32:00+09:00,3,�k�k��,4.6,�k�k��,5.9,74.5,0,0,0,0,0,0,1011.5,1025.9
2021-03-08T04:33:00+09:00,3,�k�k��,4.6,�k�k��,5.8,74.4,0,0,0,0,0,0,1011.5,1025.9
2021-03-08T04:34:00+09:00,3,�k�k��,4.6,�k�k��,5.7,74,0,0,0,0,0,0,1011.5,1025.9
2021-03-08T04:35:00+09:00,3,�k�k��,4.6,�k�k��,6,75,0,0,0,0,0,0,1011.5,1025.9
2021-03-08T04:36:00+09:00,3,�k�k��,4.5,�k�k��,6,75.3,0,0,0,0,0,0,1011.5,1025.9
2021-03-08T04:37:00+09:00,3,�k�k��,5.1,�k�k��,5.9,74.3,0,0,0,0,0,0,1011.5,1025.9
2021-03-08T04:38:00+09:00,3.1,�k�k��,5.4,�k�k��,5.9,74.4,0,0,0,0,0,0,1011.4,1025.8
2021-03-08T04:39:00+09:00,3.2,�k�k��,5.4,�k�k��,6,74.7,0,0,0,0,0,0,1011.5,1025.9
2021-03-08T04:40:00+09:00,3.3,�k�k��,5.4,�k�k��,6,74.3,0,0,0,0,0,0,1011.5,1025.9
2021-03-08T04:41:00+09:00,3.3,�k�k��,5.4,�k�k��,6,74.2,0,0,0,0,0,0,1011.5,1025.9
2021-03-08T04:42:00+09:00,3.2,�k�k��,5.4,�k�k��,6,74.4,0,0,0,0,0,0,1011.6,1026
2021-03-08T04:43:00+09:00,3.3,�k�k��,5.4,�k�k��,5.9,73.8,0,0,0,0,0,0,1011.5,1025.9
2021-03-08T04:44:00+09:00,3.3,�k�k��,5.4,�k�k��,6,74,0,0,0,0,0,0,1011.6,1026
2021-03-08T04:45:00+09:00,3.2,�k�k��,5.4,�k�k��,6,74.2,0,0,0,0,0,0,1011.6,1026
2021-03-08T04:46:00+09:00,3.1,�k�k��,5.4,�k�k��,5.9,73.8,0,0,0,0,0,0,1011.6,1026
2021-03-08T04:47:00+09:00,2.9,�k,5.4,�k�k��,5.7,73.2,0,0,0,0,0,0,1011.6,1026
2021-03-08T04:48:00+09:00,2.7,�k,5.3,�k,5.7,73.5,0,0,0,0,0,0,1011.6,1026
2021-03-08T04:49:00+09:00,2.5,�k,5.3,�k,5.7,74.1,0,0,0,0,0,0,1011.6,1026
2021-03-08T04:50:00+09:00,2.3,�k,5,�k,5.8,74.6,0,0,0,0,0,0,1011.6,1026
2021-03-08T04:51:00+09:00,2.2,�k,4.9,�k�k��,5.8,74.6,0,0,0,0,0,0,1011.6,1026
2021-03-08T04:52:00+09:00,2.3,�k,4.9,�k�k��,5.9,75,0,0,0,0,0,0,1011.6,1026
2021-03-08T04:53:00+09:00,2.3,�k,4.9,�k�k��,6,74.9,0,0,0,0,0,0,1011.6,1026
2021-03-08T04:54:00+09:00,2.4,�k,5.5,�k,5.9,74.1,0,0,0,0,0,0,1011.6,1026